Weather Roundup
Issued by NWS Corpus Christi, TX

Home | Current Version | Previous Version | Text Only | Print | Product List | Glossary On
Versions: 1 2 3 4 5 6 7 8 9 10 11 12 13 14 15 16 17 18 19 20 21 22 23 24 25 26 27 28 29 30 31 32 33 34 35 36 37 38 39 40 41 42 43 44 45 46 47 48 49 50
000
ASUS44 KCRP 200810
HRRCRP

SOUTH TEXAS REGIONAL WEATHER ROUNDUP
NATIONAL WEATHER SERVICE CORPUS CHRISTI TX
300 AM CDT SUN AUG 20 2017


TXZ229>244-200900-
...CORPUS CHRISTI AREA OBSERVATIONS...

CITY           SKY/WX    TMP DP  RH WIND       PRES   REMARKS
CORPUS CHRISTI PTCLDY    79  77  94 S5        29.97F
NAS CORPUS CHR NOT AVBL
ROCKPORT         N/A     85  76  74 S6        29.96F HX  94
KINGSVILLE ARP FAIR      78  78 100 CALM      29.98S
KINGSVILLE NAS CLEAR     79  78  97 CALM      29.97F
ALICE          CLEAR     77  76  96 S3        29.97F
FALFURRIAS     CLEAR     78  75  91 CALM      29.97F
$$

...VICTORIA AREA OBSERVATIONS...

CITY           SKY/WX    TMP DP  RH WIND       PRES   REMARKS
PORT LAVACA    CLEAR     78  75  88 S5        29.97F
VICTORIA       CLEAR     77  74  90 CALM      29.98F
BEEVILLE       FAIR      77  77 100 CALM      29.98F
PLEASANTON     NOT AVBL
SAN ANTONIO    PTCLDY    79  72  79 S6        30.02F
$$

...LAREDO AREA OBSERVATIONS...

CITY           SKY/WX    TMP DP  RH WIND       PRES   REMARKS
LAREDO         CLEAR     83  73  72 SE12      29.97F
COTULLA        PTCLDY    80  71  74 SE8       29.97F
DEL RIO        CLEAR     84  67  56 E9        29.95S
MCALLEN        PTCLDY    82  75  79 SE5       29.97F
HEBBRONVILLE   CLEAR     76  72  86 SE5       30.00F
$$

...OTHER TEXAS OBSERVATIONS...

CITY           SKY/WX    TMP DP  RH WIND       PRES   REMARKS
BROWNSVILLE    CLEAR     78  77  96 SE3       29.96F
HOUSTON        PTCLDY    79  75  87 CALM      29.97F
COL. STATION   CLEAR     81  75  82 CALM      29.99R
AUSTIN         CLEAR     78  71  79 S5        29.99F
WACO           CLEAR     83  70  64 S12       29.96F
FORT WORTH     MOCLDY    85  72  65 S8        29.94F HX  91
WICHITA FALLS  MOCLDY    75  71  87 E5        29.94F
LUBBOCK        TSTM      68  60  75 W21G32    30.11R
EL PASO        CLOUDY    72  61  68 NE13      30.08F
$$

...MARINE OBSERVATIONS...

STATION/POSITION TIME  SKY/WX   TEMP    WIND        PRES    VSBY  WAVE   SWELL
                                AIR SEA DIR/SP/G                  HT/PER HT/PER
                 (UTC)          (F)     (DEG/KT/KT) (MB)    (MI)  (FT/S) (FT/S)
PORT ARANSAS     0700            83 87  140/  9/ 10 1015.2F
BUOY 90 E PORT A 0750            85 86  170/ 10/ 12 1014.5F         2/ 5   2/ 5
BUOY 45 SE BAFFI 0750            85     150/ 12/ 14 1013.7F         2/ 5
BUOY 200 E PT IS 0750            86 88  130/  6/  8 1014.6F         1/ 4
BUOY 15 E GALVES 0650            86 88  230/ 10/ 12 1014.6          1/ 5
$$




USA.gov is the U.S. government's official web portal to all federal, state and local government web resources and services.